• En España
  • Lista de países
  • Para 7 días
  • Temperatura del agua
  • Mapa Satelital
  • El tiempo en el mapa
  • Informadores
  • user-avatar
    Iniciar sesión

    Tiempo cada hora Erhovo

    Hoy, 25 Septiembre, Martes

    Tiempo Temperatura Precipitaciones Viento Presión Humedad
    00:00 +9°C° 0 mm 7 mps 731 mmHg 85%
    01:00 +8°C° 0 mm 7 mps 731 mmHg 85%
    02:00 +6°C° 0 mm 7 mps 732 mmHg 85%
    03:00 +7°C° 0 mm 6 mps 732 mmHg 85%
    04:00 +7°C° 0 mm 6 mps 732 mmHg 84%
    05:00 +7°C° 0 mm 6 mps 732 mmHg 84%
    06:00 +7°C° 0 mm 6 mps 733 mmHg 83%
    07:00 +7°C° 0 mm 6 mps 733 mmHg 82%
    08:00 +6°C° 0 mm 7 mps 734 mmHg 82%
    09:00 +8°C° 0.1 mm 7 mps 734 mmHg 78%
    10:00 +8°C° 0.1 mm 7 mps 735 mmHg 75%
    11:00 +9°C° 0.1 mm 7 mps 735 mmHg 72%
    12:00 +9°C° 0.1 mm 7 mps 736 mmHg 72%
    13:00 +8°C° 0.1 mm 7 mps 736 mmHg 71%
    14:00 +8°C° 0.1 mm 7 mps 737 mmHg 71%
    15:00 +8°C° 0 mm 7 mps 738 mmHg 72%
    16:00 +7°C° 0 mm 6 mps 738 mmHg 72%
    17:00 +7°C° 0 mm 6 mps 739 mmHg 73%
    18:00 +5°C° 0 mm 6 mps 739 mmHg 74%
    19:00 +6°C° 0 mm 5 mps 740 mmHg 75%
    20:00 +6°C° 0 mm 5 mps 741 mmHg 76%
    21:00 +6°C° 0 mm 5 mps 741 mmHg 76%
    22:00 +6°C° 0 mm 5 mps 742 mmHg 77%
    23:00 +5°C° 0 mm 4 mps 742 mmHg 78%

    Mañana, 26 Septiembre, Miércoles

    Tiempo Temperatura Precipitaciones Viento Presión Humedad
    00:00 +5°C° 0 mm 4 mps 742 mmHg 80%
    01:00 +4°C° 0 mm 4 mps 743 mmHg 82%
    02:00 +4°C° 0 mm 4 mps 744 mmHg 85%
    03:00 +4°C° 0 mm 4 mps 744 mmHg 85%
    04:00 +3°C° 0 mm 4 mps 744 mmHg 86%
    05:00 +3°C° 0 mm 4 mps 745 mmHg 87%
    06:00 +3°C° 0 mm 4 mps 746 mmHg 83%
    07:00 +3°C° 0 mm 5 mps 746 mmHg 79%
    08:00 +5°C° 0 mm 5 mps 747 mmHg 75%
    09:00 +6°C° 0 mm 5 mps 747 mmHg 70%
    10:00 +7°C° 0 mm 5 mps 748 mmHg 65%
    11:00 +8°C° 0 mm 5 mps 748 mmHg 60%
    12:00 +8°C° 0 mm 5 mps 748 mmHg 58%
    13:00 +8°C° 0 mm 5 mps 748 mmHg 56%
    14:00 +9°C° 0 mm 5 mps 748 mmHg 54%
    15:00 +8°C° 0 mm 4 mps 748 mmHg 57%
    16:00 +8°C° 0 mm 3 mps 748 mmHg 61%
    17:00 +7°C° 0 mm 3 mps 748 mmHg 64%
    18:00 +7°C° 0 mm 3 mps 748 mmHg 65%
    19:00 +5°C° 0 mm 3 mps 748 mmHg 66%
    20:00 +4°C° 0 mm 3 mps 748 mmHg 67%
    21:00 +4°C° 0 mm 4 mps 747 mmHg 69%
    22:00 +3°C° 0 mm 5 mps 747 mmHg 70%
    23:00 +3°C° 0 mm 5 mps 747 mmHg 72%

    Pasado mañana, 27 Septiembre, Jueves

    Tiempo Temperatura Precipitaciones Viento Presión Humedad
    00:00 +4°C° 0 mm 6 mps 746 mmHg 70%
    01:00 +4°C° 0 mm 6 mps 745 mmHg 68%
    02:00 +4°C° 0 mm 7 mps 745 mmHg 66%
    03:00 +4°C° 0.2 mm 8 mps 744 mmHg 67%
    04:00 +4°C° 0.2 mm 8 mps 743 mmHg 68%
    05:00 +3°C° 0.2 mm 9 mps 742 mmHg 69%
    06:00 +3°C° 0.6 mm 9 mps 741 mmHg 73%
    07:00 +3°C° 0.6 mm 10 mps 741 mmHg 76%
    08:00 +3°C° 0.6 mm 10 mps 740 mmHg 80%
    09:00 +5°C° 0.3 mm 10 mps 739 mmHg 81%
    10:00 +5°C° 0.3 mm 10 mps 739 mmHg 82%
    11:00 +6°C° 0.3 mm 9 mps 739 mmHg 84%
    12:00 +6°C° 0.3 mm 9 mps 739 mmHg 85%
    13:00 +6°C° 0.3 mm 9 mps 738 mmHg 86%
    14:00 +7°C° 0.3 mm 8 mps 738 mmHg 87%
    15:00 +7°C° 0.3 mm 8 mps 739 mmHg 88%
    16:00 +7°C° 0.3 mm 8 mps 739 mmHg 88%
    17:00 +9°C° 0.3 mm 7 mps 739 mmHg 89%
    18:00 +8°C° 0.1 mm 6 mps 739 mmHg 89%
    19:00 +8°C° 0.1 mm 6 mps 740 mmHg 90%
    20:00 +8°C° 0.1 mm 5 mps 740 mmHg 90%
    21:00 +7°C° 0 mm 4 mps 741 mmHg 90%
    22:00 +7°C° 0 mm 4 mps 741 mmHg 91%
    23:00 +6°C° 0 mm 4 mps 741 mmHg 91%

    28 Septiembre, Viernes

    Tiempo Temperatura Precipitaciones Viento Presión Humedad
    00:00 +6°C° 0 mm 4 mps 742 mmHg 92%
    01:00 +5°C° 0 mm 4 mps 742 mmHg 92%
    02:00 +5°C° 0 mm 3 mps 742 mmHg 92%
    03:00 +5°C° 0 mm 3 mps 742 mmHg 92%
    04:00 +4°C° 0 mm 3 mps 742 mmHg 92%
    05:00 +4°C° 0 mm 3 mps 742 mmHg 92%
    06:00 +5°C° 0 mm 4 mps 742 mmHg 87%
    07:00 +7°C° 0 mm 5 mps 742 mmHg 81%
    08:00 +8°C° 0 mm 6 mps 741 mmHg 75%
    09:00 +10°C° 0 mm 7 mps 741 mmHg 76%
    10:00 +11°C° 0 mm 7 mps 740 mmHg 77%
    11:00 +12°C° 0 mm 8 mps 740 mmHg 78%
    12:00 +13°C° 0 mm 8 mps 740 mmHg 79%
    13:00 +13°C° 0 mm 8 mps 739 mmHg 79%
    14:00 +13°C° 0 mm 8 mps 739 mmHg 79%
    15:00 +13°C° 0 mm 8 mps 738 mmHg 80%
    16:00 +14°C° 0 mm 7 mps 738 mmHg 81%
    17:00 +14°C° 0 mm 7 mps 737 mmHg 82%
    18:00 +14°C° 0.4 mm 7 mps 737 mmHg 82%
    19:00 +13°C° 0.4 mm 8 mps 737 mmHg 83%
    20:00 +13°C° 0.4 mm 8 mps 737 mmHg 83%
    21:00 +12°C° 0.4 mm 7 mps 737 mmHg 84%
    22:00 +11°C° 0.4 mm 7 mps 738 mmHg 84%
    23:00 +11°C° 0.4 mm 6 mps 738 mmHg 85%

    29 Septiembre, Sábado

    Tiempo Temperatura Precipitaciones Viento Presión Humedad
    00:00 +9°C° 0 mm 5 mps 739 mmHg 86%
    01:00 +8°C° 0 mm 4 mps 739 mmHg 88%
    02:00 +6°C° 0 mm 4 mps 740 mmHg 89%
    03:00 +5°C° 0 mm 3 mps 741 mmHg 91%
    04:00 +4°C° 0 mm 3 mps 741 mmHg 92%
    05:00 +5°C° 0 mm 2 mps 742 mmHg 93%
    06:00 +4°C° 0 mm 3 mps 742 mmHg 88%
    07:00 +5°C° 0 mm 3 mps 743 mmHg 84%
    08:00 +5°C° 0 mm 3 mps 743 mmHg 79%
    09:00 +7°C° 0 mm 3 mps 744 mmHg 71%
    10:00 +8°C° 0 mm 3 mps 744 mmHg 63%
    11:00 +9°C° 0 mm 2 mps 744 mmHg 55%
    12:00 +9°C° 0 mm 2 mps 744 mmHg 52%
    13:00 +10°C° 0 mm 2 mps 744 mmHg 49%
    14:00 +10°C° 0 mm 2 mps 744 mmHg 45%
    15:00 +10°C° 0 mm 2 mps 744 mmHg 48%
    16:00 +9°C° 0 mm 2 mps 745 mmHg 51%
    17:00 +8°C° 0 mm 2 mps 745 mmHg 55%
    18:00 +7°C° 0 mm 2 mps 745 mmHg 56%
    19:00 +7°C° 0 mm 2 mps 746 mmHg 57%
    20:00 +6°C° 0 mm 2 mps 746 mmHg 58%
    21:00 +5°C° 0 mm 2 mps 746 mmHg 60%
    22:00 +5°C° 0 mm 2 mps 747 mmHg 62%
    23:00 +4°C° 0 mm 2 mps 747 mmHg 63%

    30 Septiembre, Domingo

    Tiempo Temperatura Precipitaciones Viento Presión Humedad
    00:00 +4°C° 0 mm 2 mps 747 mmHg 65%
    01:00 +4°C° 0 mm 2 mps 748 mmHg 66%
    02:00 +4°C° 0 mm 2 mps 748 mmHg 68%
    03:00 +3°C° 0 mm 2 mps 748 mmHg 70%
    04:00 +3°C° 0 mm 2 mps 749 mmHg 72%
    05:00 +3°C° 0 mm 2 mps 749 mmHg 74%
    06:00 +4°C° 0 mm 2 mps 749 mmHg 72%
    07:00 +5°C° 0 mm 2 mps 750 mmHg 70%
    08:00 +6°C° 0 mm 2 mps 750 mmHg 67%
    09:00 +7°C° 0 mm 2 mps 750 mmHg 64%
    10:00 +8°C° 0 mm 2 mps 751 mmHg 60%
    11:00 +9°C° 0 mm 2 mps 751 mmHg 56%
    12:00 +9°C° 0 mm 2 mps 750 mmHg 54%
    13:00 +11°C° 0 mm 1 mps 750 mmHg 53%
    14:00 +11°C° 0 mm 1 mps 750 mmHg 52%
    15:00 +10°C° 0 mm 1 mps 750 mmHg 54%
    16:00 +10°C° 0 mm 1 mps 750 mmHg 57%
    17:00 +8°C° 0 mm 0 mps 750 mmHg 59%
    18:00 +8°C° 0 mm 1 mps 750 mmHg 61%
    19:00 +8°C° 0 mm 1 mps 750 mmHg 62%
    20:00 +7°C° 0 mm 1 mps 750 mmHg 64%
    21:00 +7°C° 0 mm 1 mps 750 mmHg 65%
    22:00 +6°C° 0 mm 1 mps 750 mmHg 67%
    23:00 +5°C° 0 mm 2 mps 750 mmHg 69%
    Mostrar más